Regional Weather Roundup
Issued by NWS

Home | Current Version | Previous Version | Graphics & Text | Print | Product List | Glossary Off
Versions: 1 2 3 4 5 6 7 8 9 10 11 12 13 14 15 16 17 18 19 20 21 22 23 24 25 26 27 28 29 30 31 32 33 34 35 36 37 38 39 40 41 42 43 44 45 46 47 48 49 50

000
ASUS43 KLOT 300310
RWRIL

ILLINOIS REGIONAL WEATHER ROUNDUP
NATIONAL WEATHER SERVICE CHICAGO/ROMEOVILLE IL
1000 PM CDT TUE JUL 29 2014

NOTE: "FAIR" INDICATES FEW OR NO CLOUDS BELOW 12,000 FEET WITH NO
SIGNIFICANT WEATHER AND/OR OBSTRUCTIONS TO VISIBILITY.

* THESE STATIONS ARE NOT UNDER NWS QUALITY CONTROL. THEY ALSO MAY NOT
  REPORT WEATHER SUCH AS PRECIPITATION OR FOG.

ILZ001-002-007-009-015-016-024-300400-
NORTHWEST ILLINOIS

CITY           SKY/WX    TMP DP  RH WIND       PRES   REMARKS
MOLINE         CLEAR     65  57  75 W5        30.04S
STERLING*      PTCLDY    66  57  72 N12       30.04R
SAVANNA*       PTCLDY    66  56  70 CALM      30.04R
$$

ILZ003-004-008-010-011-017-018-300400-
NORTH CENTRAL ILLINOIS

CITY           SKY/WX    TMP DP  RH WIND       PRES   REMARKS
ROCKFORD       MOCLDY    67  53  61 N6        30.03S
FREEPORT*      CLOUDY    63  58  85 CALM      30.05F
ROCHELLE*      PTCLDY    67  55  63 NW10      30.04R
DE KALB*       PTCLDY    64  56  76 NW6       30.04R
PERU*          CLEAR     66  58  76 W9        30.03F
$$

ILZ005-006-012>014-019>023-300400-
NORTHEAST ILLINOIS

CITY           SKY/WX    TMP DP  RH WIND       PRES   REMARKS
CHICAGO-OHARE  MOCLDY    70  56  61 W8        30.00R
CHICAGO-MIDWAY MOCLDY    71  57  61 SW6       30.00R
AURORA         PTCLDY    64  59  83 SW3       30.02R
LANSING*       MOCLDY    62  56  79 S3        30.02R
JOLIET*        MOCLDY    65  60  82 CALM      30.02S
WAUKEGAN       RAIN      60  57  89 N9G20     30.02R FOG
DUPAGE AIRPORT PTCLDY    66  58  75 W7        30.01R
KANKAKEE*      MOCLDY    62  58  86 CALM      30.03S
WHEELING       PTCLDY    71  55  56 N17G31    30.04R
MORRIS*        PTCLDY    65  63  94 CALM      30.02S
ROMEOVILLE*    MOCLDY    65  58  80 CALM      30.02S
NORTHERLY ISL    N/A     70  57  63 SW5         N/A
$$

LMZ740>746-300400-
SOUTHERN LAKE MICHIGAN

STATION/POSITION SKY/WX   TEMP    WIND        PRES    VSBY  WAVE
                          AIR SEA DIR/SP/G                  HT/PER
                          (F)     (DEG/KT/KT) (MB)    (MI)  (FT/S)
SOUTHERN BUOY              62 62  290/ 10/ 12 1016.0R         0
WAUKEGAN HARBOR            64      10/ 25/ 34   N/A
HARRISON CRIB              69     190/ 13/ 14   N/A
BURNHAM HARBOR             71     250/  3/  8   N/A
CALUMET HARBOR             69     220/  3/  5 1014.8F
MICHIGAN CITY              68     210/ 10/ 13   N/A
MICHIGAN CITY 6N           69 69  230/  8/  8   N/A           1/ 3
ST. JOSEPH                 68 68  190/  6/  8   N/A           1
$$

ILZ025>027-034>036-040-047-049-050-058-095>099-300400-
WEST-CENTRAL ILLINOIS

CITY           SKY/WX    TMP DP  RH WIND       PRES   REMARKS
QUINCY         CLEAR     68  58  70 CALM      30.08R
GALESBURG*     CLEAR     63  58  85 W3        30.06S
MACOMB*        CLEAR     61  58  92 W6        30.09R
JACKSONVILLE*  CLEAR     64  61  88 SW5       30.09R
PITTSFIELD*    CLEAR     63  59  87 CALM      30.09R
$$

ILZ028>032-037-038-041>044-048-051>054-059>061-300400-
CENTRAL ILLINOIS

CITY           SKY/WX    TMP DP  RH WIND       PRES   REMARKS
PONTIAC        CLEAR     64  63  94 CALM      30.04S
DECATUR        CLEAR     69  57  65 W5        30.07R
PEORIA         CLEAR     68  58  70 W3        30.06R
LACON*         CLEAR     65  57  76 CALM      30.03S
LINCOLN*       CLEAR     67  59  75 CALM      30.04R
SPRINGFIELD    CLEAR     64  60  87 W5        30.07R
TAYLORVILLE    CLEAR     61  57  88 CALM      30.07S
$$

ILZ033-039-045-046-055>057-062-063-300400-
EAST-CENTRAL ILLINOIS

CITY           SKY/WX    TMP DP  RH WIND       PRES   REMARKS
CHAMPAIGN      CLEAR     61  58  90 SW5       30.06R
DANVILLE*      PTCLDY    60  59  94 CALM      30.03S
RANTOUL*       CLEAR     63  57  81 CALM      30.06S
MATTOON        CLEAR     62  57  83 CALM      30.06S
PARIS*         CLEAR     62  58  89 W3        30.07S
$$

ILZ079-100>102-300400-
SOUTHWEST ILLINOIS

CITY           SKY/WX    TMP DP  RH WIND       PRES   REMARKS
ALTON          CLEAR     68  61  77 NW7       30.07S
BELLEVILLE     CLEAR     64  60  88 CALM      30.07R
CAHOKIA*       CLEAR     64  58  80 S3        30.08R
SPARTA*        CLEAR     63  55  77 CALM      30.09R
$$

ILZ064>066-069>071-074>076-080>082-084>086-088>090-092>094-300400-
SOUTH-CENTRAL ILLINOIS

CITY           SKY/WX    TMP DP  RH WIND       PRES   REMARKS
CARBONDALE     CLEAR     63  58  83 CALM      30.08R
CAIRO*         CLEAR     65  59  82 CALM      30.09R
EFFINGHAM*     CLEAR     61  53  76 CALM      30.08R
MARION         CLEAR     64  57  77 CALM      30.09R
MT. VERNON     CLEAR     61  55  82 CALM      30.09R
CENTRALIA*     CLEAR     59  56  89 CALM      30.08R
SALEM*         CLEAR    N/A N/A N/A CALM      30.08S
METROPOLIS*    CLEAR     60  55  84 CALM      30.08R
$$

ILZ067-068-072-073-078-083-087-091-300400-
SOUTHEAST ILLINOIS

CITY           SKY/WX    TMP DP  RH WIND       PRES   REMARKS
LAWRENCEVILLE  CLEAR     63  59  87 CALM      30.07R
FLORA*         CLEAR     62  56  82 CALM      30.08S
FAIRFIELD*     CLEAR     63  61  94 CALM      30.08R
HARRISBURG*    CLEAR     62  61  94 CALM      30.09R
ROBINSON*      CLEAR     60  58  93 CALM      30.08S
$$

ABBREVIATIONS USED IN REMARKS
   TC - TEMPERATURE IN CELSIUS
  WCI - WIND CHILL INDEX
   HX - HEAT INDEX
  VSB - VISIBILITY
$$



USA.gov is the U.S. government's official web portal to all federal, state and local government web resources and services.